カタログに戻る

STARLINK-5136

運用中通信VLEO
NORAD 56414·PAYLOAD·🇺🇸 United States

打ち上げ May 4, 2023 から Cape Canaveral Space Force Station

Loading…

次のパス (今後24時間)

TLE

最新Source: CelesTrak SupGP

元期: Sep 14, 2026, 21:41 UTC

1 56414C 23061AS  26257.90395833 -.00005956  00000+0 -21570-3 0  2575
2 56414  43.0002 198.5215 0001251 257.3880  29.7376 15.27584270    10

AllMySatでSTARLINK-5136をリアルタイム追跡

Download on the App Store